This is the latest recevied weather packets stored in our database for station/object KD5HIA. If no packets are shown the sender has not sent any weather packets the latest 10 day(s).
| Time | Temp. | Humidity | Pressure | Rain* | Wind** | Luminosity | Snow |
|---|---|---|---|---|---|---|---|
| 1777858217 | 21.67° C | 50% | 1015.5 hPa | 0 mm | - | 0 W/m² | - |
| 1777857617 | 21.67° C | 48% | 1015.2 hPa | 0 mm | - | 3 W/m² | - |
| 1777857017 | 22.22° C | 47% | 1015.2 hPa | 0 mm | - | 14 W/m² | - |
| 1777856417 | 22.78° C | 45% | 1015.2 hPa | 0 mm | - | 14 W/m² | - |
| 1777855817 | 22.78° C | 43% | 1015.4 hPa | 0 mm | - | 30 W/m² | - |
| 1777855217 | 23.33° C | 42% | 1015.4 hPa | 0 mm | - | 45 W/m² | - |
| 1777854617 | 23.33° C | 41% | 1015.5 hPa | 0 mm | - | 89 W/m² | - |
| 1777854017 | 23.89° C | 40% | 1015.7 hPa | 0 mm | - | 106 W/m² | - |
| 1777853417 | 23.89° C | 40% | 1015.6 hPa | 0 mm | - | 106 W/m² | - |
| 1777852817 | 23.89° C | 39% | 1015.7 hPa | 0 mm | - | 99 W/m² | - |
| 1777852217 | 23.89° C | 38% | 1015.7 hPa | 0 mm | - | 94 W/m² | - |
| 1777851617 | 24.44° C | 38% | 1015.7 hPa | 0 mm | - | 113 W/m² | - |
| 1777851017 | 24.44° C | 38% | 1015.7 hPa | 0 mm | - | 149 W/m² | - |
| 1777850417 | 25° C | 38% | 1015.9 hPa | 0 mm | - | 206 W/m² | - |
| 1777849817 | 25° C | 37% | 1015.9 hPa | 0 mm | - | 227 W/m² | - |
| 1777849217 | 24.44° C | 38% | 1016.1 hPa | 0 mm | - | 258 W/m² | - |
| 1777848617 | 25.56° C | 38% | 1016.2 hPa | 0 mm | - | 457 W/m² | - |
| 1777848017 | 24.44° C | 39% | 1016.4 hPa | 0 mm | - | 317 W/m² | - |
| 1777847417 | 24.44° C | 39% | 1016.6 hPa | 0 mm | - | 228 W/m² | - |
| 1777846817 | 24.44° C | 37% | 1016.6 hPa | 0 mm | - | 217 W/m² | - |
| 1777846217 | 25° C | 37% | 1016.9 hPa | 0 mm | - | 242 W/m² | - |
| 1777845617 | 25° C | 37% | 1016.7 hPa | 0 mm | - | 314 W/m² | - |
| 1777845017 | 25° C | 37% | 1016.7 hPa | 0 mm | - | 306 W/m² | - |
| 1777844417 | 25° C | 37% | 1017 hPa | 0 mm | - | 345 W/m² | - |
| 1777843817 | 25.56° C | 36% | 1016.9 hPa | 0 mm | - | 374 W/m² | - |
* Rain latest hour (hover to see other rain measurements)
** Current wind speed in m/s (hover to see current wind gust speed)